Location: Newark
(35.8967°N, 14.4625°E)
Time: 17:24:39
(UTC+00:00)

Envisat - Pass Details

Date: 29 October 2019
Orbit: 764 x 766 km, 98.1° (Epoch: 19 November)

Event Time Altitude Azimuth Distance (km) Brightness Sun altitude
Rises 18:33:11 0° 215° (SW) 3,219 6.6 -29.5°
Reaches altitude 10° 18:36:58 10° 244° (WSW) 2,299 6.1 -30.3°
Maximum altitude 18:39:02 12° 269° (W) 2,136 6.1 -30.7°
Drops below altitude 10° 18:41:07 10° 293° (WNW) 2,305 6.3 -31.1°
Sets 18:44:56 0° 323° (NW) 3,236 6.8 -31.9°
